| time (UTC) | temp C | wind direction | speed KPH | gust KPH | rain 1hr cm | rain 24hr cm | rain mn cm | humidity % | barometer mb |
| 20260506201311 | 15 | 251 | 24.1 | 48.3 | 0.00 | 0.00 | 0.00 | 64 | 1006.7 |
| 20260506200811 | 15 | 237 | 24.1 | 48.3 | 0.00 | 0.00 | 0.00 | 64 | 1006.7 |
| 20260506200312 | 15 | 256 | 22.5 | 45.1 | 0.00 | 0.00 | 0.00 | 64 | 1006.8 |
| 20260506195806 | 15 | 213 | 22.5 | 38.6 | 0.00 | 0.00 | 0.00 | 64 | 1006.9 |
| 20260506195300 | 15 | 252 | 22.5 | 48.3 | 0.00 | 0.00 | 0.00 | 64 | 1006.9 |
| 20260506194753 | 15 | 249 | 20.9 | 48.3 | 0.00 | 0.00 | 0.00 | 64 | 1006.8 |
| 20260506194247 | 15 | 263 | 22.5 | 37.0 | 0.00 | 0.00 | 0.00 | 64 | 1007.1 |
| 20260506193742 | 15 | 242 | 22.5 | 45.1 | 0.00 | 0.00 | 0.00 | 64 | 1007.2 |
| 20260506193236 | 15 | 232 | 20.9 | 45.1 | 0.00 | 0.00 | 0.00 | 64 | 1007.4 |
| 20260506192729 | 15 | 260 | 20.9 | 41.8 | 0.00 | 0.00 | 0.00 | 65 | 1007.4 |
| 20260506192224 | 15 | 240 | 22.5 | 41.8 | 0.00 | 0.00 | 0.00 | 65 | 1007.5 |
| 20260506191725 | 15 | 239 | 20.9 | 38.6 | 0.00 | 0.00 | 0.00 | 65 | 1007.5 |
| 20260506191225 | 15 | 261 | 20.9 | 40.2 | 0.00 | 0.00 | 0.00 | 65 | 1007.5 |
| 20260506190725 | 15 | 247 | 19.3 | 40.2 | 0.00 | 0.00 | 0.00 | 65 | 1007.6 |
| 20260506190444 | 15 | 215 | 20.9 | 33.8 | 0.00 | 0.00 | 0.00 | 66 | 1007.5 |
| 20260506185726 | 15 | 250 | 22.5 | 46.7 | 0.00 | 0.00 | 0.00 | 66 | 1007.8 |
| 20260506185224 | 15 | 246 | 22.5 | 46.7 | 0.00 | 0.00 | 0.00 | 66 | 1007.6 |
| 20260506184724 | 14 | 233 | 22.5 | 45.1 | 0.00 | 0.00 | 0.00 | 66 | 1007.6 |
| 20260506184225 | 14 | 225 | 24.1 | 43.5 | 0.00 | 0.00 | 0.00 | 66 | 1007.7 |
| 20260506183725 | 14 | 272 | 24.1 | 40.2 | 0.00 | 0.00 | 0.00 | 65 | 1007.9 |
| 20260506183226 | 15 | 218 | 25.7 | 41.8 | 0.00 | 0.00 | 0.00 | 65 | 1007.9 |
| 20260506182721 | 15 | 226 | 24.1 | 41.8 | 0.00 | 0.00 | 0.00 | 65 | 1008.0 |
| 20260506182221 | 15 | 245 | 24.1 | 41.8 | 0.00 | 0.00 | 0.00 | 65 | 1008.2 |
| 20260506181721 | 15 | 256 | 22.5 | 41.8 | 0.00 | 0.00 | 0.00 | 64 | 1008.2 |
| 20260506181221 | 15 | 253 | 20.9 | 41.8 | 0.00 | 0.00 | 0.00 | 64 | 1008.2 |
| 20260506180720 | 15 | 226 | 22.5 | 41.8 | 0.00 | 0.00 | 0.00 | 64 | 1008.4 |
| 20260506180446 | 15 | 214 | 25.7 | 43.5 | 0.00 | 0.00 | 0.00 | 63 | 1008.4 |
| 20260506175721 | 15 | 230 | 24.1 | 43.5 | 0.00 | 0.00 | 0.00 | 63 | 1008.6 |
| 20260506175221 | 15 | 267 | 22.5 | 41.8 | 0.00 | 0.00 | 0.00 | 62 | 1008.7 |
| 20260506174945 | 15 | 240 | 25.7 | 48.3 | 0.00 | 0.00 | 0.00 | 62 | 1008.8 |
| 20260506174219 | 15 | 250 | 29.0 | 48.3 | 0.00 | 0.00 | 0.00 | 61 | 1008.8 |
| 20260506173718 | 15 | 223 | 29.0 | 48.3 | 0.00 | 0.00 | 0.00 | 61 | 1008.8 |
| 20260506173223 | 16 | 213 | 29.0 | 49.9 | 0.00 | 0.00 | 0.00 | 61 | 1008.8 |
| 20260506172719 | 16 | 260 | 27.4 | 49.9 | 0.00 | 0.00 | 0.00 | 61 | 1008.8 |
| 20260506172219 | 16 | 263 | 27.4 | 46.7 | 0.00 | 0.00 | 0.00 | 61 | 1008.8 |
| 20260506171718 | 16 | 263 | 29.0 | 59.5 | 0.00 | 0.00 | 0.00 | 61 | 1008.8 |
| 20260506171704 | 16 | 230 | 27.4 | 59.5 | 0.00 | 0.00 | 0.00 | 61 | 1008.9 |
| 20260506170953 | 16 | 265 | 25.7 | 53.1 | 0.00 | 0.00 | 0.00 | 61 | 1008.8 |
| 20260506170218 | 16 | 227 | 27.4 | 46.7 | 0.00 | 0.00 | 0.00 | 61 | 1009.1 |
| 20260506165719 | 16 | 263 | 29.0 | 46.7 | 0.00 | 0.00 | 0.00 | 61 | 1009.0 |
| 20260506165212 | 16 | 219 | 29.0 | 59.5 | 0.00 | 0.00 | 0.00 | 61 | 1009.2 |
| 20260506164713 | 16 | 259 | 29.0 | 59.5 | 0.00 | 0.00 | 0.00 | 61 | 1009.2 |
| 20260506164212 | 16 | 240 | 30.6 | 53.1 | 0.00 | 0.00 | 0.00 | 61 | 1009.1 |
| 20260506163931 | 16 | 229 | 29.0 | 49.9 | 0.00 | 0.00 | 0.00 | 61 | 1009.0 |
| 20260506163212 | 16 | 294 | 27.4 | 48.3 | 0.00 | 0.00 | 0.00 | 61 | 1009.2 |
| 20260506162710 | 16 | 253 | 27.4 | 49.9 | 0.00 | 0.00 | 0.00 | 61 | 1009.1 |
| 20260506162211 | 16 | 249 | 27.4 | 51.5 | 0.00 | 0.00 | 0.00 | 61 | 1009.2 |
| 20260506161710 | 16 | 246 | 27.4 | 51.5 | 0.00 | 0.00 | 0.00 | 60 | 1009.2 |
| 20260506161208 | 16 | 248 | 29.0 | 49.9 | 0.00 | 0.00 | 0.00 | 60 | 1009.4 |
| 20260506160709 | 16 | 291 | 29.0 | 51.5 | 0.00 | 0.00 | 0.00 | 61 | 1009.5 |
| 20260506160428 | 16 | 233 | 29.0 | 57.9 | 0.00 | 0.00 | 0.00 | 61 | 1009.6 |
| 20260506155709 | 16 | 256 | 29.0 | 57.9 | 0.00 | 0.00 | 0.00 | 61 | 1009.7 |
| 20260506155648 | 16 | 244 | 29.0 | 57.9 | 0.00 | 0.00 | 0.00 | 61 | 1009.7 |
| 20260506154708 | 16 | 242 | 29.0 | 57.9 | 0.00 | 0.00 | 0.00 | 61 | 1009.7 |
| 20260506154208 | 16 | 228 | 29.0 | 49.9 | 0.00 | 0.00 | 0.00 | 61 | 1009.6 |
| 20260506153710 | 16 | 253 | 29.0 | 48.3 | 0.00 | 0.00 | 0.00 | 61 | 1009.7 |
| 20260506153209 | 16 | 261 | 29.0 | 59.5 | 0.00 | 0.00 | 0.00 | 60 | 1009.6 |
| 20260506152703 | 16 | 241 | 29.0 | 59.5 | 0.00 | 0.00 | 0.00 | 60 | 1009.6 |
| 20260506152156 | 16 | 231 | 32.2 | 53.1 | 0.00 | 0.00 | 0.00 | 60 | 1009.5 |
| 20260506151651 | 16 | 260 | 32.2 | 62.8 | 0.00 | 0.00 | 0.00 | 60 | 1009.6 |
| 20260506151145 | 16 | 244 | 29.0 | 53.1 | 0.00 | 0.00 | 0.00 | 59 | 1010.0 |
| 20260506150640 | 17 | 244 | 27.4 | 51.5 | 0.00 | 0.00 | 0.00 | 59 | 1009.5 |
| 20260506150133 | 17 | 244 | 25.7 | 46.7 | 0.00 | 0.00 | 0.00 | 59 | 1009.6 |
| 20260506145627 | 17 | 254 | 27.4 | 51.5 | 0.00 | 0.00 | 0.00 | 59 | 1009.7 |
| 20260506145120 | 17 | 256 | 27.4 | 51.5 | 0.00 | 0.00 | 0.00 | 59 | 1009.7 |
| 20260506144615 | 16 | 242 | 27.4 | 48.3 | 0.00 | 0.00 | 0.00 | 59 | 1009.6 |
| 20260506144109 | 16 | 248 | 25.7 | 59.5 | 0.00 | 0.00 | 0.00 | 60 | 1009.8 |
| 20260506143603 | 16 | 302 | 25.7 | 59.5 | 0.00 | 0.00 | 0.00 | 59 | 1009.7 |
| 20260506143057 | 16 | 240 | 25.7 | 53.1 | 0.00 | 0.00 | 0.00 | 60 | 1010.0 |
| 20260506142550 | 16 | 344 | 25.7 | 53.1 | 0.00 | 0.00 | 0.00 | 60 | 1010.1 |
| 20260506142045 | 16 | 229 | 27.4 | 49.9 | 0.00 | 0.00 | 0.00 | 60 | 1010.1 |
| 20260506141539 | 16 | 233 | 29.0 | 54.7 | 0.00 | 0.00 | 0.00 | 60 | 1010.0 |
| 20260506141032 | 16 | 256 | 29.0 | 54.7 | 0.00 | 0.00 | 0.00 | 60 | 1010.0 |
| 20260506140527 | 16 | 249 | 29.0 | 51.5 | 0.00 | 0.00 | 0.00 | 60 | 1009.9 |
| 20260506140021 | 16 | 217 | 29.0 | 49.9 | 0.00 | 0.00 | 0.00 | 60 | 1009.9 |
| 20260506135515 | 16 | 240 | 29.0 | 51.5 | 0.00 | 0.00 | 0.00 | 60 | 1009.8 |
| 20260506135008 | 16 | 248 | 27.4 | 51.5 | 0.00 | 0.00 | 0.00 | 60 | 1009.8 |
| 20260506134503 | 16 | 241 | 27.4 | 48.3 | 0.00 | 0.00 | 0.00 | 60 | 1009.6 |
| 20260506133958 | 16 | 209 | 27.4 | 49.9 | 0.00 | 0.00 | 0.00 | 60 | 1009.8 |
| 20260506133450 | 16 | 252 | 27.4 | 49.9 | 0.00 | 0.00 | 0.00 | 60 | 1009.9 |
| 20260506132945 | 16 | 225 | 27.4 | 48.3 | 0.00 | 0.00 | 0.00 | 60 | 1009.9 |
| 20260506132707 | 16 | 230 | 22.5 | 40.2 | 0.00 | 0.00 | 0.00 | 61 | 1009.7 |
| 20260506132206 | 16 | 224 | 22.5 | 45.1 | 0.00 | 0.00 | 0.00 | 60 | 1009.6 |
| 20260506131427 | 16 | 259 | 24.1 | 45.1 | 0.00 | 0.00 | 0.00 | 60 | 1009.9 |
| 20260506130921 | 16 | 237 | 24.1 | 45.1 | 0.00 | 0.00 | 0.00 | 60 | 1010.0 |
| 20260506130635 | 16 | 227 | 22.5 | 41.8 | 0.00 | 0.00 | 0.00 | 60 | 1010.1 |
| 20260506130134 | 16 | 262 | 24.1 | 46.7 | 0.00 | 0.00 | 0.00 | 61 | 1010.2 |
| 20260506125403 | 16 | 237 | 25.7 | 51.5 | 0.00 | 0.00 | 0.00 | 61 | 1010.2 |
| 20260506125117 | 16 | 259 | 24.1 | 51.5 | 0.00 | 0.00 | 0.00 | 61 | 1010.0 |
| 20260506124352 | 16 | 255 | 24.1 | 48.3 | 0.00 | 0.00 | 0.00 | 61 | 1010.1 |
| 20260506123845 | 16 | 239 | 24.1 | 48.3 | 0.00 | 0.00 | 0.00 | 61 | 1010.1 |
| 20260506123339 | 16 | 264 | 22.5 | 45.1 | 0.00 | 0.00 | 0.00 | 61 | 1010.2 |
| 20260506123055 | 16 | 244 | 24.1 | 43.5 | 0.00 | 0.00 | 0.00 | 62 | 1010.2 |
| 20260506122327 | 15 | 245 | 25.7 | 49.9 | 0.00 | 0.00 | 0.00 | 62 | 1010.1 |
| 20260506121821 | 15 | 259 | 24.1 | 49.9 | 0.00 | 0.00 | 0.00 | 62 | 1009.9 |
| 20260506121315 | 15 | 273 | 25.7 | 48.3 | 0.00 | 0.00 | 0.00 | 63 | 1010.0 |
| 20260506120809 | 15 | 259 | 27.4 | 48.3 | 0.00 | 0.00 | 0.00 | 63 | 1010.1 |
| 20260506120303 | 15 | 232 | 25.7 | 45.1 | 0.00 | 0.00 | 0.00 | 63 | 1010.1 |
| 20260506115759 | 15 | 221 | 25.7 | 49.9 | 0.00 | 0.00 | 0.00 | 63 | 1010.1 |
| 20260506115251 | 15 | 238 | 25.7 | 49.9 | 0.00 | 0.00 | 0.00 | 63 | 1010.1 |
| 20260506114746 | 15 | 246 | 24.1 | 49.9 | 0.00 | 0.00 | 0.00 | 63 | 1010.0 |
| 20260506114239 | 15 | 256 | 24.1 | 49.9 | 0.00 | 0.00 | 0.00 | 64 | 1010.1 |
| 20260506113734 | 15 | 207 | 22.5 | 46.7 | 0.00 | 0.00 | 0.00 | 64 | 1010.1 |
| 20260506113227 | 15 | 266 | 22.5 | 46.7 | 0.00 | 0.00 | 0.00 | 64 | 1010.0 |
| 20260506112948 | 15 | 245 | 22.5 | 40.2 | 0.00 | 0.00 | 0.00 | 64 | 1010.2 |
| 20260506112215 | 15 | 250 | 22.5 | 38.6 | 0.00 | 0.00 | 0.00 | 64 | 1010.2 |
| 20260506111933 | 15 | 237 | 24.1 | 40.2 | 0.00 | 0.00 | 0.00 | 64 | 1010.1 |
| 20260506111428 | 15 | 245 | 24.1 | 41.8 | 0.00 | 0.00 | 0.00 | 64 | 1010.2 |
| 20260506110657 | 14 | 263 | 24.1 | 41.8 | 0.00 | 0.00 | 0.00 | 65 | 1010.2 |
| 20260506110157 | 14 | 246 | 25.7 | 45.1 | 0.00 | 0.00 | 0.00 | 65 | 1010.1 |
| 20260506105658 | 14 | 248 | 25.7 | 45.1 | 0.00 | 0.00 | 0.00 | 65 | 1010.1 |
| 20260506105157 | 14 | 234 | 24.1 | 41.8 | 0.00 | 0.00 | 0.00 | 65 | 1010.2 |
| 20260506104654 | 14 | 242 | 24.1 | 45.1 | 0.00 | 0.00 | 0.00 | 65 | 1010.1 |
| 20260506104153 | 14 | 252 | 25.7 | 45.1 | 0.00 | 0.00 | 0.00 | 65 | 1010.1 |
| 20260506103655 | 14 | 244 | 22.5 | 43.5 | 0.00 | 0.00 | 0.00 | 65 | 1010.2 |
| 20260506103154 | 14 | 249 | 24.1 | 43.5 | 0.00 | 0.00 | 0.00 | 65 | 1010.1 |
| 20260506102653 | 14 | 241 | 24.1 | 45.1 | 0.00 | 0.00 | 0.00 | 65 | 1010.0 |
| 20260506102154 | 14 | 235 | 25.7 | 49.9 | 0.00 | 0.00 | 0.00 | 65 | 1010.0 |
| 20260506101653 | 14 | 228 | 27.4 | 49.9 | 0.00 | 0.00 | 0.00 | 65 | 1009.8 |
| 20260506101154 | 14 | 257 | 25.7 | 43.5 | 0.00 | 0.00 | 0.00 | 65 | 1009.8 |
| 20260506100915 | 14 | 287 | 22.5 | 45.1 | 0.00 | 0.00 | 0.00 | 65 | 1009.9 |
| 20260506100154 | 14 | 248 | 24.1 | 49.9 | 0.00 | 0.00 | 0.00 | 65 | 1009.8 |
| 20260506095914 | 14 | 237 | 24.1 | 51.5 | 0.00 | 0.00 | 0.00 | 65 | 1009.8 |
| 20260506095153 | 14 | 232 | 25.7 | 51.5 | 0.00 | 0.00 | 0.00 | 65 | 1009.8 |
| 20260506094654 | 14 | 256 | 27.4 | 49.9 | 0.00 | 0.00 | 0.00 | 65 | 1009.8 |
| 20260506094155 | 14 | 250 | 27.4 | 48.3 | 0.00 | 0.00 | 0.00 | 65 | 1009.9 |
| 20260506093651 | 14 | 273 | 25.7 | 49.9 | 0.00 | 0.00 | 0.00 | 65 | 1009.8 |
| 20260506093153 | 14 | 249 | 24.1 | 49.9 | 0.00 | 0.00 | 0.00 | 65 | 1009.9 |
| 20260506092651 | 14 | 267 | 24.1 | 38.6 | 0.00 | 0.00 | 0.00 | 65 | 1009.9 |
| 20260506092152 | 14 | 243 | 25.7 | 49.9 | 0.00 | 0.00 | 0.00 | 65 | 1009.8 |
| 20260506091651 | 14 | 237 | 27.4 | 49.9 | 0.00 | 0.00 | 0.00 | 65 | 1009.9 |
| 20260506091634 | 15 | 229 | 27.4 | 46.7 | 0.00 | 0.00 | 0.00 | 65 | 1009.9 |
| 20260506090652 | 15 | 250 | 27.4 | 46.7 | 0.00 | 0.00 | 0.00 | 65 | 1010.0 |
| 20260506090151 | 15 | 257 | 27.4 | 46.7 | 0.00 | 0.00 | 0.00 | 65 | 1010.0 |
| 20260506085651 | 15 | 241 | 27.4 | 45.1 | 0.00 | 0.00 | 0.00 | 65 | 1010.1 |
| 20260506085413 | 15 | 252 | 25.7 | 46.7 | 0.00 | 0.00 | 0.00 | 65 | 1010.1 |
| 20260506084648 | 15 | 233 | 27.4 | 46.7 | 0.00 | 0.00 | 0.00 | 65 | 1010.1 |
| 20260506084415 | 15 | 210 | 25.7 | 43.5 | 0.00 | 0.00 | 0.00 | 65 | 1010.2 |
| 20260506083917 | 15 | 263 | 25.7 | 51.5 | 0.00 | 0.00 | 0.00 | 65 | 1010.2 |
| 20260506083149 | 15 | 263 | 25.7 | 51.5 | 0.00 | 0.00 | 0.00 | 65 | 1010.1 |
| 20260506082648 | 15 | 229 | 24.1 | 48.3 | 0.00 | 0.00 | 0.00 | 65 | 1010.2 |
| 20260506082147 | 15 | 263 | 25.7 | 46.7 | 0.00 | 0.00 | 0.00 | 65 | 1010.1 |
| 20260506081648 | 15 | 220 | 29.0 | 46.7 | 0.00 | 0.00 | 0.00 | 65 | 1010.2 |
| 20260506081148 | 15 | 230 | 27.4 | 48.3 | 0.00 | 0.00 | 0.00 | 64 | 1010.2 |
| 20260506080649 | 15 | 148 | 27.4 | 48.3 | 0.00 | 0.00 | 0.00 | 64 | 1010.2 |
| 20260506080143 | 15 | 240 | 25.7 | 48.3 | 0.00 | 0.00 | 0.00 | 64 | 1010.2 |
| 20260506073144 | 15 | 247 | 25.7 | 48.3 | 0.00 | 0.00 | 0.00 | 64 | 1010.4 |
| 20260506072646 | 15 | 290 | 25.7 | 46.7 | 0.00 | 0.00 | 0.00 | 64 | 1010.4 |
| 20260506072144 | 15 | 223 | 25.7 | 45.1 | 0.00 | 0.00 | 0.00 | 63 | 1010.3 |
| 20260506071645 | 15 | 204 | 27.4 | 49.9 | 0.00 | 0.00 | 0.00 | 63 | 1010.4 |
| 20260506071410 | 15 | 259 | 27.4 | 49.9 | 0.00 | 0.00 | 0.00 | 63 | 1010.4 |
| 20260506070636 | 15 | 229 | 25.7 | 48.3 | 0.00 | 0.00 | 0.00 | 63 | 1010.3 |
| 20260506070131 | 15 | 251 | 27.4 | 48.3 | 0.00 | 0.00 | 0.00 | 64 | 1010.3 |
| 20260506062122 | 15 | 247 | 24.1 | 54.7 | 0.00 | 0.00 | 0.00 | 64 | 1010.4 |
| 20260506061621 | 15 | 279 | 24.1 | 46.7 | 0.00 | 0.00 | 0.00 | 64 | 1010.3 |
| 20260506061121 | 15 | 263 | 27.4 | 51.5 | 0.00 | 0.00 | 0.00 | 63 | 1010.4 |
| 20260506060621 | 15 | 256 | 27.4 | 51.5 | 0.00 | 0.00 | 0.00 | 63 | 1010.4 |
| 20260506060123 | 15 | 265 | 29.0 | 49.9 | 0.00 | 0.00 | 0.00 | 63 | 1010.4 |
| 20260506051052 | 15 | 259 | 27.4 | 54.7 | 0.00 | 0.00 | 0.00 | 63 | 1010.7 |
| 20260506050546 | 15 | 247 | 27.4 | 49.9 | 0.00 | 0.00 | 0.00 | 63 | 1010.7 |
| 20260506044534 | 15 | 296 | 25.7 | 54.7 | 0.00 | 0.00 | 0.00 | 63 | 1010.8 |
| 20260506044034 | 15 | 217 | 24.1 | 45.1 | 0.00 | 0.00 | 0.00 | 63 | 1010.8 |
| 20260506043534 | 15 | 256 | 25.7 | 48.3 | 0.00 | 0.00 | 0.00 | 63 | 1010.8 |
| 20260506043300 | 15 | 244 | 25.7 | 48.3 | 0.00 | 0.00 | 0.00 | 63 | 1010.9 |
| 20260506042753 | 15 | 263 | 25.7 | 48.3 | 0.00 | 0.00 | 0.00 | 63 | 1011.0 |
| 20260506042031 | 15 | 265 | 29.0 | 51.5 | 0.00 | 0.00 | 0.00 | 63 | 1010.8 |
| 20260506041531 | 15 | 268 | 29.0 | 51.5 | 0.00 | 0.00 | 0.00 | 63 | 1011.0 |
| 20260506041249 | 15 | 238 | 25.7 | 49.9 | 0.00 | 0.00 | 0.00 | 63 | 1010.9 |
| 20260506040530 | 15 | 244 | 25.7 | 49.9 | 0.00 | 0.00 | 0.00 | 62 | 1010.8 |
| 20260506040029 | 15 | 226 | 29.0 | 54.7 | 0.00 | 0.00 | 0.00 | 62 | 1010.8 |
| 20260506035530 | 15 | 264 | 27.4 | 54.7 | 0.00 | 0.00 | 0.00 | 62 | 1010.8 |
| 20260506035028 | 15 | 249 | 25.7 | 51.5 | 0.00 | 0.00 | 0.00 | 62 | 1010.9 |
| 20260506034527 | 15 | 238 | 27.4 | 49.9 | 0.00 | 0.00 | 0.00 | 62 | 1010.8 |
| 20260506034029 | 15 | 222 | 25.7 | 54.7 | 0.00 | 0.00 | 0.00 | 61 | 1010.8 |
| 20260506033748 | 15 | 222 | 25.7 | 54.7 | 0.00 | 0.00 | 0.00 | 61 | 1010.9 |
| 20260506033021 | 15 | 258 | 25.7 | 54.7 | 0.00 | 0.00 | 0.00 | 61 | 1010.8 |
| 20260506032736 | 16 | 244 | 27.4 | 48.3 | 0.00 | 0.00 | 0.00 | 61 | 1010.8 |
| 20260506032010 | 16 | 259 | 25.7 | 48.3 | 0.00 | 0.00 | 0.00 | 61 | 1010.8 |
| 20260506031945 | 16 | 242 | 24.1 | 51.5 | 0.00 | 0.00 | 0.00 | 61 | 1010.7 |
| 20260506030958 | 16 | 265 | 22.5 | 51.5 | 0.00 | 0.00 | 0.00 | 61 | 1010.8 |
| 20260506030453 | 15 | 286 | 24.1 | 48.3 | 0.00 | 0.00 | 0.00 | 61 | 1010.8 |
| 20260506025946 | 16 | 257 | 25.7 | 48.3 | 0.00 | 0.00 | 0.00 | 61 | 1010.8 |
| 20260506025702 | 16 | 248 | 24.1 | 51.5 | 0.00 | 0.00 | 0.00 | 60 | 1010.8 |
| 20260506024941 | 16 | 251 | 25.7 | 53.1 | 0.00 | 0.00 | 0.00 | 60 | 1010.8 |
| 20260506024441 | 16 | 246 | 25.7 | 53.1 | 0.00 | 0.00 | 0.00 | 60 | 1010.8 |
| 20260506023939 | 16 | 241 | 24.1 | 46.7 | 0.00 | 0.00 | 0.00 | 60 | 1010.8 |
| 20260506023439 | 16 | 288 | 24.1 | 41.8 | 0.00 | 0.00 | 0.00 | 60 | 1010.8 |
| 20260506022939 | 16 | 266 | 24.1 | 45.1 | 0.00 | 0.00 | 0.00 | 60 | 1010.6 |
| 20260506022439 | 16 | 232 | 25.7 | 48.3 | 0.00 | 0.00 | 0.00 | 60 | 1010.8 |
| 20260506021939 | 16 | 244 | 25.7 | 48.3 | 0.00 | 0.00 | 0.00 | 59 | 1010.7 |
| 20260506021439 | 16 | 242 | 25.7 | 43.5 | 0.00 | 0.00 | 0.00 | 59 | 1010.6 |
| 20260506021205 | 16 | 252 | 27.4 | 46.7 | 0.00 | 0.00 | 0.00 | 59 | 1010.6 |
| 20260506020439 | 16 | 229 | 25.7 | 51.5 | 0.00 | 0.00 | 0.00 | 58 | 1010.5 |
| 20260506020428 | 16 | 274 | 25.7 | 51.5 | 0.00 | 0.00 | 0.00 | 58 | 1010.5 |
| 20260506015439 | 16 | 269 | 25.7 | 49.9 | 0.00 | 0.00 | 0.00 | 58 | 1010.7 |
| 20260506015201 | 16 | 296 | 27.4 | 49.9 | 0.00 | 0.00 | 0.00 | 58 | 1010.5 |
| 20260506014659 | 16 | 245 | 25.7 | 48.3 | 0.00 | 0.00 | 0.00 | 58 | 1010.5 |
| 20260506013939 | 16 | 265 | 24.1 | 45.1 | 0.00 | 0.00 | 0.00 | 58 | 1010.4 |
| 20260506013440 | 16 | 252 | 24.1 | 41.8 | 0.00 | 0.00 | 0.00 | 58 | 1010.4 |
| 20260506013159 | 16 | 251 | 24.1 | 46.7 | 0.00 | 0.00 | 0.00 | 58 | 1010.4 |
| 20260506012428 | 16 | 242 | 24.1 | 46.7 | 0.00 | 0.00 | 0.00 | 58 | 1010.4 |
| 20260506012150 | 16 | 256 | 25.7 | 43.5 | 0.00 | 0.00 | 0.00 | 58 | 1010.3 |
| 20260506011417 | 16 | 226 | 27.4 | 57.9 | 0.00 | 0.00 | 0.00 | 58 | 1010.3 |
| 20260506010909 | 16 | 311 | 25.7 | 57.9 | 0.00 | 0.00 | 0.00 | 58 | 1010.1 |
| 20260506010404 | 16 | 252 | 24.1 | 48.3 | 0.00 | 0.00 | 0.00 | 58 | 1010.2 |
| 20260506005858 | 16 | 279 | 24.1 | 46.7 | 0.00 | 0.00 | 0.00 | 58 | 1010.2 |
| 20260506005353 | 16 | 309 | 24.1 | 46.7 | 0.00 | 0.00 | 0.00 | 58 | 1010.1 |
| 20260506004846 | 16 | 261 | 22.5 | 54.7 | 0.00 | 0.00 | 0.00 | 58 | 1010.1 |
| 20260506004340 | 16 | 259 | 24.1 | 54.7 | 0.00 | 0.00 | 0.00 | 58 | 1010.0 |
| 20260506003834 | 16 | 263 | 24.1 | 45.1 | 0.00 | 0.00 | 0.00 | 59 | 1010.0 |
| 20260506003328 | 16 | 261 | 24.1 | 43.5 | 0.00 | 0.00 | 0.00 | 59 | 1009.6 |
| 20260506002822 | 16 | 260 | 24.1 | 43.5 | 0.00 | 0.00 | 0.00 | 58 | 1009.6 |
| 20260506002537 | 16 | 254 | 24.1 | 53.1 | 0.00 | 0.00 | 0.00 | 58 | 1009.5 |
| 20260506001811 | 16 | 274 | 25.7 | 53.1 | 0.00 | 0.00 | 0.00 | 58 | 1009.4 |
| 20260506001311 | 16 | 336 | 25.7 | 45.1 | 0.00 | 0.00 | 0.00 | 58 | 1009.3 |
| 20260506000811 | 16 | 208 | 25.7 | 59.5 | 0.00 | 0.00 | 0.00 | 59 | 1009.2 |
| 20260506000311 | 16 | 244 | 27.4 | 59.5 | 0.00 | 0.00 | 0.00 | 59 | 1009.2 |
| 20260506000031 | 16 | 225 | 27.4 | 53.1 | 0.00 | 0.00 | 0.00 | 59 | 1009.1 |
| 20260505235311 | 16 | 240 | 25.7 | 51.5 | 0.00 | 0.00 | 0.00 | 59 | 1009.0 |
| 20260505234811 | 15 | 238 | 25.7 | 48.3 | 0.00 | 0.00 | 0.00 | 59 | 1009.0 |
| 20260505234528 | 15 | 249 | 24.1 | 49.9 | 0.00 | 0.00 | 0.00 | 59 | 1009.0 |
| 20260505233810 | 15 | 252 | 27.4 | 49.9 | 0.00 | 0.00 | 0.00 | 59 | 1008.8 |
| 20260505233311 | 15 | 246 | 29.0 | 49.9 | 0.00 | 0.00 | 0.00 | 59 | 1008.8 |
| 20260505232811 | 15 | 234 | 27.4 | 46.7 | 0.00 | 0.00 | 0.00 | 59 | 1008.8 |
| 20260505232313 | 15 | 221 | 25.7 | 46.7 | 0.00 | 0.00 | 0.00 | 59 | 1009.0 |
| 20260505231811 | 16 | 261 | 25.7 | 48.3 | 0.00 | 0.00 | 0.00 | 59 | 1008.9 |
| 20260505231311 | 16 | 244 | 27.4 | 48.3 | 0.00 | 0.00 | 0.00 | 59 | 1008.9 |
| 20260505231032 | 16 | 240 | 27.4 | 49.9 | 0.00 | 0.00 | 0.00 | 59 | 1008.9 |
| 20260505230310 | 16 | 248 | 25.7 | 49.9 | 0.00 | 0.00 | 0.00 | 59 | 1008.7 |
| 20260505230037 | 16 | 253 | 25.7 | 51.5 | 0.00 | 0.00 | 0.00 | 59 | 1008.7 |
| 20260505225306 | 16 | 260 | 27.4 | 51.5 | 0.00 | 0.00 | 0.00 | 59 | 1008.8 |
| 20260505224759 | 16 | 210 | 25.7 | 49.9 | 0.00 | 0.00 | 0.00 | 59 | 1008.7 |
| 20260505224513 | 16 | 248 | 27.4 | 56.3 | 0.00 | 0.00 | 0.00 | 59 | 1008.6 |
| 20260505223748 | 16 | 252 | 27.4 | 56.3 | 0.00 | 0.00 | 0.00 | 58 | 1008.5 |
| 20260505223242 | 16 | 227 | 25.7 | 53.1 | 0.00 | 0.00 | 0.00 | 58 | 1008.6 |
| 20260505222736 | 16 | 255 | 27.4 | 51.5 | 0.00 | 0.00 | 0.00 | 58 | 1008.6 |
| 20260505222233 | 16 | 255 | 27.4 | 51.5 | 0.00 | 0.00 | 0.00 | 59 | 1008.5 |
| 20260505221723 | 16 | 229 | 27.4 | 49.9 | 0.00 | 0.00 | 0.00 | 59 | 1008.4 |
| 20260505221218 | 16 | 230 | 27.4 | 49.9 | 0.00 | 0.00 | 0.00 | 59 | 1008.4 |
| 20260505220712 | 16 | 232 | 25.7 | 45.1 | 0.00 | 0.00 | 0.00 | 59 | 1008.5 |
| 20260505220206 | 16 | 253 | 24.1 | 43.5 | 0.00 | 0.00 | 0.00 | 59 | 1008.4 |
| 20260505215706 | 16 | 252 | 24.1 | 51.5 | 0.00 | 0.00 | 0.00 | 59 | 1008.4 |
| 20260505215205 | 16 | 244 | 25.7 | 51.5 | 0.00 | 0.00 | 0.00 | 58 | 1008.6 |
| 20260505214705 | 16 | 254 | 24.1 | 45.1 | 0.00 | 0.00 | 0.00 | 59 | 1008.5 |
| 20260505214206 | 16 | 257 | 25.7 | 54.7 | 0.00 | 0.00 | 0.00 | 59 | 1008.5 |
| 20260505213705 | 16 | 265 | 25.7 | 54.7 | 0.00 | 0.00 | 0.00 | 59 | 1008.5 |
| 20260505213206 | 16 | 224 | 24.1 | 46.7 | 0.00 | 0.00 | 0.00 | 58 | 1008.5 |
| 20260505212706 | 16 | 223 | 25.7 | 45.1 | 0.00 | 0.00 | 0.00 | 59 | 1008.4 |
| 20260505212205 | 16 | 251 | 27.4 | 45.1 | 0.00 | 0.00 | 0.00 | 58 | 1008.5 |
| 20260505211704 | 16 | 242 | 25.7 | 43.5 | 0.00 | 0.00 | 0.00 | 58 | 1008.5 |
| 20260505211205 | 16 | 184 | 25.7 | 43.5 | 0.00 | 0.00 | 0.00 | 58 | 1008.4 |
| 20260505210709 | 16 | 248 | 24.1 | 41.8 | 0.00 | 0.00 | 0.00 | 58 | 1008.3 |
| 20260505210206 | 16 | 269 | 25.7 | 51.5 | 0.00 | 0.00 | 0.00 | 57 | 1008.4 |
| 20260505205700 | 16 | 249 | 27.4 | 51.5 | 0.00 | 0.00 | 0.00 | 57 | 1008.5 |
| 20260505205202 | 16 | 230 | 25.7 | 46.7 | 0.00 | 0.00 | 0.00 | 57 | 1008.5 |
| 20260505205157 | 17 | 255 | 25.7 | 48.3 | 0.00 | 0.00 | 0.00 | 57 | 1008.5 |
| 20260505204201 | 17 | 258 | 25.7 | 48.3 | 0.00 | 0.00 | 0.00 | 57 | 1008.3 |
| 20260505203700 | 17 | 253 | 25.7 | 46.7 | 0.00 | 0.00 | 0.00 | 56 | 1008.4 |
| 20260505203201 | 17 | 254 | 25.7 | 48.3 | 0.00 | 0.00 | 0.00 | 56 | 1008.4 |
| 20260505202700 | 17 | 240 | 27.4 | 48.3 | 0.00 | 0.00 | 0.00 | 56 | 1008.5 |
| 20260505202201 | 17 | 274 | 25.7 | 46.7 | 0.00 | 0.00 | 0.00 | 56 | 1008.7 |
| 20260505201930 | 17 | 286 | 24.1 | 46.7 | 0.00 | 0.00 | 0.00 | 56 | 1008.5 |